DW9819 Weather Reports


Display with metric or nautical units.
time (UTC)temp
F
wind
direction
speed
MPH
gust
MPH
rain 1hr
in
rain 24hr
in
rain mn
in
humidity
%
barometer
mb
20181116182436 39 169 2.0 4.0 0.00 0.00 0.00 82 1022.6
20181116180939 37 169 2.0 5.0 0.00 0.00 0.00 85 1022.8
20181116173924 32 184 1.0 3.0 0.00 0.00 0.00 94 1022.7
20181116172422 30 192 0.0 3.0 0.00 0.00 0.00 94 1022.8
20181116170923 28 204 1.0 3.0 0.00 0.00 0.00 94 1022.9
20181116165443 27 204 0.0 2.0 0.00 0.00 0.00 94 1023.1
20181116163939 26 204 1.0 4.0 0.00 0.00 0.00 94 1023.1
20181116162428 25 135 0.0 3.0 0.00 0.00 0.00 94 1022.9
20181116160934 24 135 1.0 2.0 0.00 0.00 0.00 93 1023.0
20181116155438 24 134 1.0 2.0 0.00 0.00 0.00 93 1023.0
20181116153926 23 134 1.0 3.0 0.00 0.00 0.00 92 1022.9
20181116152429 23 134 0.0 2.0 0.00 0.00 0.00 92 1022.8
20181116150923 23 134 0.0 2.0 0.00 0.00 0.00 91 1022.8
20181116143922 24 134 0.0 1.0 0.00 0.00 0.00 90 1022.8
20181116142423 24 134 0.0 3.0 0.00 0.00 0.00 90 1022.6
20181116140931 24 133 0.0 1.0 0.00 0.00 0.00 90 1022.8
20181116135421 25 133 0.0 1.0 0.00 0.00 0.00 92 1022.7
20181116133951 25 133 0.0 4.0 0.00 0.00 0.00 92 1022.8
20181116132424 25 32 0.0 3.0 0.00 0.00 0.00 92 1022.8
20181116130936 24 30 0.0 1.0 0.00 0.00 0.00 92 1022.8
20181116125424 24 30 0.0 1.0 0.00 0.00 0.00 91 1022.8
20181116123921 24 30 0.0 1.0 0.00 0.00 0.00 91 1022.9
20181116122437 25 30 0.0 1.0 0.00 0.00 0.00 91 1022.9
20181116120936 25 30 0.0 1.0 0.00 0.00 0.00 91 1022.9
20181116115442 25 30 0.0 1.0 0.00 0.00 0.00 91 1022.9
20181116113940 25 30 0.0 1.0 0.00 0.00 0.00 90 1023.0
20181116112444 25 30 0.0 1.0 0.00 0.00 0.00 90 1023.1
20181116110937 26 30 0.0 0.0 0.00 0.00 0.00 90 1023.1
20181116105427 26 29 0.0 0.0 0.00 0.00 0.00 90 1023.1
20181116103933 26 29 0.0 0.0 0.00 0.00 0.00 90 1023.2
20181116102423 26 30 0.0 0.0 0.00 0.00 0.00 90 1023.3
20181116100938 26 30 0.0 0.0 0.00 0.00 0.00 90 1023.3
20181116095423 26 30 0.0 0.0 0.00 0.00 0.00 90 1023.4
20181116093927 26 30 0.0 0.0 0.00 0.00 0.00 90 1023.4
20181116092445 26 30 0.0 1.0 0.00 0.00 0.00 90 1023.5
20181116090941 27 30 0.0 0.0 0.00 0.00 0.00 90 1023.6
20181116085422 27 30 0.0 0.0 0.00 0.00 0.00 89 1023.5
20181116083934 27 30 0.0 0.0 0.00 0.00 0.00 89 1023.5
20181116082432 27 30 0.0 0.0 0.00 0.00 0.00 89 1023.6
20181116080925 27 30 0.0 0.0 0.00 0.00 0.00 88 1023.6
20181116075429 27 30 0.0 0.0 0.00 0.00 0.00 89 1023.5
20181116073937 27 30 0.0 0.0 0.00 0.00 0.00 88 1023.6
20181116072421 28 29 0.0 0.0 0.00 0.00 0.00 88 1023.7
20181116070938 28 30 0.0 0.0 0.00 0.00 0.00 87 1023.8
20181116065446 28 30 0.0 0.0 0.00 0.00 0.00 87 1023.7
20181116063957 28 30 0.0 0.0 0.00 0.00 0.00 86 1023.8
20181116062423 29 30 0.0 0.0 0.00 0.00 0.00 86 1023.8
20181116060937 29 30 0.0 0.0 0.00 0.00 0.00 85 1023.6
20181116055440 30 30 0.0 0.0 0.00 0.00 0.00 85 1023.5
20181116053941 30 30 0.0 0.0 0.00 0.00 0.00 85 1023.5
20181116052427 31 30 0.0 0.0 0.00 0.00 0.00 84 1023.6
20181116050931 31 30 0.0 0.0 0.00 0.00 0.00 83 1023.6
20181116045425 32 30 0.0 0.0 0.00 0.00 0.00 82 1023.6
20181116043940 33 30 0.0 0.0 0.00 0.00 0.00 81 1023.7
20181116042427 33 30 0.0 0.0 0.00 0.00 0.00 82 1023.7
20181116040926 34 30 327.0 327.0 0.00 0.00 0.00 81 1024.0
20181116035437 35 30 0.0 0.0 0.00 0.00 0.00 79 1023.6
20181116033925 35 30 0.0 0.0 0.00 0.00 0.00 78 1023.6
20181116032436 36 30 0.0 0.0 0.00 0.00 0.00 75 1023.7
20181116030927 37 30 0.0 0.0 0.00 0.00 0.00 74 1023.5
20181116025427 38 30 0.0 0.0 0.00 0.00 0.00 72 1023.6
20181116023925 40 30 0.0 0.0 0.00 0.00 0.00 72 1023.6
20181116022424 40 30 0.0 0.0 0.00 0.00 0.00 71 1023.5
20181116020929 42 30 0.0 0.0 0.00 0.00 0.00 68 1023.5
20181116015437 43 30 0.0 0.0 0.00 0.00 0.00 67 1023.4
20181116013925 44 30 0.0 0.0 0.00 0.00 0.00 65 1023.5
20181116012433 46 30 0.0 1.0 0.00 0.00 0.00 61 1023.4
20181116010938 48 30 0.0 0.0 0.00 0.00 0.00 57 1023.4
20181116005428 50 30 0.0 0.0 0.00 0.00 0.00 55 1023.2
20181116003935 52 30 327.0 327.0 0.00 0.00 0.00 53 1023.1
20181116002429 53 30 1.0 3.0 0.00 0.00 0.00 52 1023.0
20181116000940 54 38 327.0 327.0 0.00 0.00 0.00 51 1023.0
20181115233937 56 360 0.0 5.0 0.00 0.00 0.00 46 1022.9
20181115232428 56 171 1.0 2.0 0.00 0.00 0.00 45 1022.9
20181115225425 56 171 0.0 1.0 0.00 0.00 0.00 49 1023.0
20181115223930 55 171 0.0 2.0 0.00 0.00 0.00 50 1023.0
20181115222430 55 171 3.0 6.0 0.00 0.00 0.00 51 1023.1
20181115220934 54 152 2.0 8.0 0.00 0.00 0.00 53 1023.2
20181115215443 53 138 1.0 5.0 0.00 0.00 0.00 55 1023.3
20181115213928 52 111 2.0 6.0 0.00 0.00 0.00 57 1023.4
20181115212428 52 138 1.0 7.0 0.00 0.00 0.00 59 1023.5
20181115210934 51 132 1.0 8.0 0.00 0.00 0.00 61 1023.7
20181115205421 50 165 1.0 8.0 0.00 0.00 0.00 62 1024.0
20181115203944 49 128 3.0 8.0 0.00 0.00 0.00 64 1024.3
20181115202420 48 173 3.0 5.0 0.00 0.00 0.00 67 1024.6
20181115200926 47 157 3.0 7.0 0.00 0.00 0.00 70 1024.7
20181115195442 45 173 2.0 8.0 0.00 0.00 0.00 73 1025.0
20181115193931 43 192 3.0 6.0 0.00 0.00 0.00 76 1025.2
20181115192425 42 164 4.0 7.0 0.00 0.00 0.00 79 1025.6
20181115190921 40 188 2.0 10.0 0.00 0.00 0.00 82 1025.8
20181115185423 39 236 3.0 9.0 0.00 0.00 0.00 84 1026.0
20181115183934 38 126 3.0 9.0 0.00 0.00 0.00 87 1026.2